Weather History for Belize / Phillip Goldston Intl. Airport, Belize

Change the Weather History Date:

Monday, March 4, 2013

  Actual Average Record
Temperature  
Mean Temperature 69 °F -  
Max Temperature 79 °F 85 °F - ()
Min Temperature 59 °F 71 °F - ()
Cooling Degree Days 4    
Growing Degree Days 19 (Base 50)    
Moisture  
Dew Point 60 °F    
Average Humidity 67    
Maximum Humidity 88    
Minimum Humidity 48    
Precipitation  
Precipitation 0.00 in 0.08 in - ()
Sea Level Pressure  
Sea Level Pressure 30.12 in    
Wind  
Wind Speed 15 mph ()    
Max Wind Speed 89 mph    
Max Gust Speed -    
Visibility 9.1 miles    
Events      
T = Trace of Precipitation, MM = Missing Value Source: Averaged Metar Reports

Daily Weather History Graph

Daily Weather History Graph

Search for Another Location

Airport:

Trip Planner

Search our weather history database for the weather conditions in past years. The results will help you decide how hot, cold, wet, or windy it might be!

Date:

Astronomy

Mar. 04, 2013 Rise Set
Actual Time 6:09 AM CST 6:00 PM CST
Civil Twilight 5:47 AM CST 6:22 PM CST
Nautical Twilight 5:22 AM CST 6:47 PM CST
Astronomical Twilight 4:57 AM CST 7:12 PM CST
Moon No Moon Rise 11:17 AM CST (3/4)
Length of Visible Light 12h 34m
Length of Day
11h 51m
Waning Gibbous, 52% of the Moon is Illuminated
Mar 4
Waning Gibbous
Mar 4
Last Quarter
Mar 11
New
Mar 19
First Quarter
Mar 27
Full

Hourly Weather History & Observations

Time (CST) Temp. Dew Point Humidity Pressure Visibility Wind Dir Wind Speed Gust Speed Precip Events Conditions
3:00 AM - 57 °F % 30.13 in 12 mi North 88.6 mph - -  
5:00 AM 60.8 °F 57.2 °F 88% 30.14 in 6.2 mi West 2.3 mph - N/A   Scattered Clouds
6:00 AM 60 °F 56 °F 83% 30.17 in 12 mi West 4.6 mph - -   Scattered Clouds
6:00 AM 60.8 °F 57.2 °F 88% 30.16 in 6.2 mi West 4.6 mph - N/A   Scattered Clouds
7:00 AM 60.8 °F 57.2 °F 88% 30.18 in 6.2 mi West 3.5 mph - N/A   Scattered Clouds
8:00 AM 64.4 °F 55.4 °F 73% 30.19 in - NW 6.9 mph - N/A   Clear
9:00 AM 67 °F 57 °F 63% 30.20 in 15 mi North 6.9 mph - -   Mostly Cloudy
9:00 AM 66.2 °F 57.2 °F 73% 30.19 in - North 6.9 mph - N/A   Clear
10:00 AM 69.8 °F 59.0 °F 68% 30.18 in 6.2 mi NNW 3.5 mph - N/A   Mostly Cloudy
11:00 AM 73.4 °F 60.8 °F 65% 30.16 in 6.2 mi NE 5.8 mph - N/A   Mostly Cloudy
12:00 PM 75 °F 61 °F 52% 30.13 in 16 mi ENE 5.8 mph - -   Mostly Cloudy
12:00 PM 75.2 °F 60.8 °F 61% 30.13 in 6.2 mi ENE 5.8 mph - N/A   Scattered Clouds
1:00 PM 78.8 °F 62.6 °F 57% 30.09 in 6.2 mi East 8.1 mph - N/A   Scattered Clouds
2:00 PM 77.0 °F 62.6 °F 61% 30.06 in 6.2 mi ENE 11.5 mph - N/A   Scattered Clouds
3:00 PM 78 °F 62 °F 48% 30.04 in 19 mi East 9.2 mph - -   Scattered Clouds
3:00 PM 78.8 °F 62.6 °F 57% 30.04 in 6.2 mi East 9.2 mph - N/A   Partly Cloudy
4:00 PM 77.0 °F 62.6 °F 61% 30.03 in 6.2 mi East 9.2 mph - N/A   Partly Cloudy
5:00 PM 77.0 °F 59.0 °F 54% 30.04 in 6.2 mi SE 5.8 mph - N/A   Partly Cloudy
6:00 PM 74 °F 60 °F 53% 30.05 in 16 mi East 5.8 mph - -   Scattered Clouds
6:00 PM 73.4 °F 60.8 °F 65% 30.04 in 6.2 mi East 4.6 mph - N/A   Partly Cloudy
9:00 PM 69.8 °F 62.6 °F 78% 30.09 in - East 4.6 mph - N/A   Clear